Contract 0x6331bbf02a6a512386a83765f97f4a96403cb01a

 
 
Txn Hash Method
Block
From
To
Value [Txn Fee]
0xefaf2a73d44fe556d4831c623bb6eea9c90271ceebc0fda1f176c279f5729147Sell171004772021-07-21 6:57:57434 days 22 hrs ago0x6c45247f8573bc556be4d767c8777777778d91a9 IN  0x6331bbf02a6a512386a83765f97f4a96403cb01a0 MATIC0.015909408333
0x5588620892e30ff424e64ece47b9c4d2076f9f81183a9f3c8ea0b3de26537520Sell171004662021-07-21 6:57:35434 days 22 hrs ago0x6c45247f8573bc556be4d767c8777777778d91a9 IN  0x6331bbf02a6a512386a83765f97f4a96403cb01a0 MATIC0.015913404333
0xfed4e0676a3f0802188dbd2c2d28231d1159b554a844b6725cf71968a98307e7Buy171001922021-07-21 6:47:09434 days 22 hrs ago0x6c45247f8573bc556be4d767c8777777778d91a9 IN  0x6331bbf02a6a512386a83765f97f4a96403cb01a0 MATIC0.01570251276
0x956019ef627c8210dcab5ae751e4ef3edfa9864f5d1fabf29975e8f492ee0661Sell171001902021-07-21 6:47:01434 days 22 hrs ago0x6c45247f8573bc556be4d767c8777777778d91a9 IN  0x6331bbf02a6a512386a83765f97f4a96403cb01a0 MATIC0.01318128876
0x2a274e06c0e26990b0df0350e1a36096c4d1bb562ce7b7d3c3132682cedb3d89Buy171000712021-07-21 6:41:53434 days 22 hrs ago0x6c45247f8573bc556be4d767c8777777778d91a9 IN  0x6331bbf02a6a512386a83765f97f4a96403cb01a0 MATIC0.022932404121
0x2aa31d621a1a24e547761e018febe5f7a76dba3bc516d4ee323e3a9373f6be88Buy170907822021-07-21 1:05:16435 days 3 hrs ago0x7a01bdcb19254cebce340f514d363b21fdbfb975 IN  0x6331bbf02a6a512386a83765f97f4a96403cb01a0 MATIC0.03221908170
0x27646a18beec43cd07530d6fbbac32796a96d75e3245583a85f6abf95319079cSell170375042021-07-19 15:22:37436 days 13 hrs ago0x7a01bdcb19254cebce340f514d363b21fdbfb975 IN  0x6331bbf02a6a512386a83765f97f4a96403cb01a0 MATIC0.02948038170
0xd72492a90264f20e5382ed5c9398b12c39d662ae4bab51fdec195f350941bedeSell170361272021-07-19 14:19:57436 days 14 hrs ago0x7a01bdcb19254cebce340f514d363b21fdbfb975 IN  0x6331bbf02a6a512386a83765f97f4a96403cb01a0 MATIC0.02948038170
0x6af47898ab2e4a77315868ba07b57df2f36fe5daf41d83eabdd4f8d9402d754fSell170098382021-07-18 20:50:31437 days 8 hrs ago0x6b49e25ab45cdd8e237d1f7c85fcf989ae2474cf IN  0x6331bbf02a6a512386a83765f97f4a96403cb01a0 MATIC0.057734874333
0xd0a0df98d6358807a77786448df1ec8b01d1798ce819ec86edf990311c0a74aaBuy169943492021-07-18 10:42:20437 days 18 hrs ago0x6c45247f8573bc556be4d767c8777777778d91a9 IN  0x6331bbf02a6a512386a83765f97f4a96403cb01a0 MATIC0.0233458113
0xfb0dd0e65a5c06ac6e2f762e6fb1bbda2b7ee71d3e7aec96cc28bafa1083516aBuy169832892021-07-18 3:28:27438 days 1 hr ago0x6b49e25ab45cdd8e237d1f7c85fcf989ae2474cf IN  0x6331bbf02a6a512386a83765f97f4a96403cb01a0 MATIC0.01875931299
0x95379f9ef9ef32f810527166894afd546bc89e3c36d2c279d3874849adda5e4cSell169832322021-07-18 3:24:39438 days 1 hr ago0x7a01bdcb19254cebce340f514d363b21fdbfb975 IN  0x6331bbf02a6a512386a83765f97f4a96403cb01a0 MATIC0.02947834170
0x1c72d32370bf804ea71b2aa71cc316967799cd26ea9e4a06d711a8c6c25c36d7Sell169831942021-07-18 3:23:17438 days 1 hr ago0x7a01bdcb19254cebce340f514d363b21fdbfb975 IN  0x6331bbf02a6a512386a83765f97f4a96403cb01a0 MATIC0.02947834170
0x2d2bd759d267c6de558c23ce405b877c4c0c798929efc4fb4124fb6f4f2b6479Buy169831252021-07-18 3:20:55438 days 1 hr ago0x7a01bdcb19254cebce340f514d363b21fdbfb975 IN  0x6331bbf02a6a512386a83765f97f4a96403cb01a0 MATIC0.03221908170
0x56319e8a7ca5a8375598b6bf5fb92cff5e538bf5b9845b71bdb4d311c1c4ef99Sell169831132021-07-18 3:20:31438 days 1 hr ago0x7a01bdcb19254cebce340f514d363b21fdbfb975 IN  0x6331bbf02a6a512386a83765f97f4a96403cb01a0 MATIC0.02947834170
0xe26acea06a5f6ed9f122a909244eb5746c284c9f57e2313564cb0f9cacb08789Sell169829192021-07-18 3:13:51438 days 1 hr ago0x7a01bdcb19254cebce340f514d363b21fdbfb975 IN  0x6331bbf02a6a512386a83765f97f4a96403cb01a0 MATIC0.02947834170
0xb1ae975518d37eb0d2fb0ebdc481206ef31de3901c89e37e66b0aff30be853c4Sell169825932021-07-18 3:02:39438 days 1 hr ago0x7a01bdcb19254cebce340f514d363b21fdbfb975 IN  0x6331bbf02a6a512386a83765f97f4a96403cb01a0 MATIC0.02947834170
0x29acbc15d569f95eaa1642c1452faa2b30f7d62e9c55b66db5987afb85ea3328Sell169817782021-07-18 2:28:13438 days 2 hrs ago0x7a01bdcb19254cebce340f514d363b21fdbfb975 IN  0x6331bbf02a6a512386a83765f97f4a96403cb01a0 MATIC0.02948038170
0x87350c736790c1497eb72c460206469d38d30d25e13f7db4117e01e30ecb427bSell169809732021-07-18 1:55:31438 days 3 hrs ago0x7a01bdcb19254cebce340f514d363b21fdbfb975 IN  0x6331bbf02a6a512386a83765f97f4a96403cb01a0 MATIC0.02948038170
0xb27106d93de9d551db6ffb163fce1eb67cbfeeaa464f92d91462665df41b8505Sell169809332021-07-18 1:52:51438 days 3 hrs ago0x7a01bdcb19254cebce340f514d363b21fdbfb975 IN  0x6331bbf02a6a512386a83765f97f4a96403cb01a0 MATIC0.02948038170
0xda329d6032d24bf20e84ab466d82ad2d008e9d583eccaab2565e16184b778458Sell169809052021-07-18 1:51:39438 days 3 hrs ago0x7a01bdcb19254cebce340f514d363b21fdbfb975 IN  0x6331bbf02a6a512386a83765f97f4a96403cb01a0 MATIC0.02948038170
0x4c9151c5cc4ed02603dbda0536be504013e5bb225c4d0f2cd9e59517e3b6006eSell169808002021-07-18 1:48:05438 days 3 hrs ago0x7a01bdcb19254cebce340f514d363b21fdbfb975 IN  0x6331bbf02a6a512386a83765f97f4a96403cb01a0 MATIC0.00822392170
0x788216c33dec6cbae332cdf91bc4f95489ac9eb021cba82344de9c0c3ed92049Sell169807422021-07-18 1:46:05438 days 3 hrs ago0x7a01bdcb19254cebce340f514d363b21fdbfb975 IN  0x6331bbf02a6a512386a83765f97f4a96403cb01a0 MATIC0.02948038170
0xfa35d8c9f5631ee71b0f72cc8d3a7398986994cf65e9b74bbcc39a1524e5e574Sell169805522021-07-18 1:39:33438 days 3 hrs ago0x7a01bdcb19254cebce340f514d363b21fdbfb975 IN  0x6331bbf02a6a512386a83765f97f4a96403cb01a0 MATIC0.02947834170
0xa3396c176f563a0e441d5d993f39c569f7bbdc162bdaeb80948d9de338912462Buy169805002021-07-18 1:37:45438 days 3 hrs ago0x7a01bdcb19254cebce340f514d363b21fdbfb975 IN  0x6331bbf02a6a512386a83765f97f4a96403cb01a0 MATIC0.03221704170
[ Download CSV Export 
Latest 1 internal transaction
Parent Txn Hash Block From To Value
0x1b08452772ea151be0e8b76b177a2ccff03acbc43ad584b10692c1c506e8b1ee167872642021-07-12 17:40:37443 days 11 hrs ago 0x8b9805a2f595b6705e74f7310829f2d299d21522  Contract Creation0 MATIC
[ Download CSV Export 
Loading
Are you the contract creator? Verify and Publish your contract source code today!
This contract was created by the contract code at 0x8b9805a2f595b6705e74f7310829f2d299d21522
Note: We also found another 8145 contracts with exact matching byte codes

Decompile ByteCode Is this a proxy?
0x363d3d373d3d3d363d730b8a853ad2e8984a429f36dabc75f0cbdd5534f85af43d82803e903d91602b57fd5bf3 
Block Transaction Gas Used Reward
Age Block Fee Address BC Fee Address Voting Power Jailed Incoming
Block Uncle Number Difficulty Gas Used Reward
Loading
Loading
Make sure to use the "Vote Down" button for any spammy posts, and the "Vote Up" for interesting conversations.